Temp
57 58 57 56 54 53 56 56 50 72 73 55 57 49 54 55 58 62 56 54 52 48 48 47 45 44 49 55 50 45 55 53 57 63 76 82 77 72 68 61 53 57 55 62
58 58 57 56 54 54 51 50 55 70 66 44 46 50 51 57 56 55 52 49 51 51 47 39 41 44 54 54 48 48 52 47 48 58 66 74 73 75 74 65 60 55 56 61
58 57 57 55 55 54 53 52 47 54 57 55 47 45 46 47 56 53 54 50 53 49 44 44 38 42 49 53 51 56 55 49 48 50 60 65 66 74 75 70 61 60 64 61
58 58 57 56 55 55 53 53 48 48 41 41 44 47 47 43 42 53 56 47 49 44 38 42 41 45 46 52 52 50 49 45 54 60 66 69 70 73 75 70 69 63 66 65
58 58 57 57 56 54 52 48 43 44 40 44 43 46 44 44 46 46 45 47 49 45 39 42 38 46 44 43 47 43 47 45 52 54 66 69 69 75 77 75 74 72 70 69
58 58 57 57 56 54 53 53 52 43 39 40 41 43 43 43 46 49 50 49 48 44 50 53 53 55 54 51 45 41 44 48 45 45 61 65 56 68 75 76 77 76 68 71
58 57 57 57 57 55 53 52 46 38 35 37 39 43 46 44 46 43 49 50 45 54 59 58 57 57 56 56 53 51 46 48 45 44 55 43 61 74 76 77 78 79 77 78
57 58 57 57 56 56 51 53 45 39 34 39 39 43 41 44 48 46 48 50 50 56 53 45 42 44 47 51 55 52 54 49 42 41 49 55 64 68 68 68 61 69 69 79
57 57 57 57 57 56 53 52 49 43 36 37 43 39 41 39 41 44 49 57 59 54 45 41 35 35 40 44 50 56 55 55 47 47 44 46 55 68 71 73 51 68 68 71
57 57 58 58 58 56 53 52 50 44 37 42 44 40 39 44 43 40 46 47 48 48 36 36 36 36 47 40 43 45 47 48 44 47 44 48 55 65 70 53 52 66 67 67
57 57 57 57 57 57 54 51 51 45 40 44 49 49 43 44 43 38 44 44 44 41 36 36 34 36 41 42 46 42 44 43 43 44 44 37 60 64 55 59 65 66 66 66
56 57 57 57 57 57 56 49 53 51 43 45 52 52 54 53 53 46 46 42 44 46 38 38 40 39 42 43 33 48 38 43 35 45 44 58 63 61 67 67 64 62 63 65
56 56 57 57 57 57 55 51 49 47 43 45 48 49 55 57 57 59 43 46 49 45 48 43 42 38 43 36 40 42 48 53 43 45 50 54 59 58 59 59 61 65 65 65
56 56 57 57 57 57 56 52 51 50 46 40 48 60 52 58 56 53 50 48 50 49 48 41 39 37 43 37 41 39 46 48 41 43 49 49 55 55 56 57 59 62 64 66
55 56 56 56 57 57 58 57 55 56 47 40 45 53 55 55 55 52 50 47 45 42 38 37 35 39 39 41 42 41 47 41 36 35 43 43 45 52 54 52 54 57 60 61
55 55 56 57 57 56 54 48 54 58 55 44 41 56 53 53 51 49 47 46 44 42 38 36 38 42 38 33 32 43 44 45 44 40 47 47 48 50 52 50 53 57 60 61
55 55 57 57 56 57 54 50 54 57 57 46 45 47 53 53 50 47 45 45 41 40 37 35 35 37 39 33 31 40 42 44 46 49 50 46 48 45 53 55 58 60 62 62
55 56 56 54 53 52 55 57 55 56 52 50 43 48 49 55 47 43 45 41 42 40 38 38 35 37 35 31 36 43 44 47 50 52 53 49 52 53 54 55 57 56 57 59
55 56 56 57 54 57 56 58 57 57 52 45 47 41 44 55 51 46 43 42 38 40 37 38 37 32 32 37 42 43 44 44 46 53 53 52 51 51 54 54 55 54 55 57
55 56 57 55 58 57 57 54 50 51 52 53 44 50 46 56 49 47 44 42 41 39 43 43 39 37 46 46 47 47 47 47 48 45 46 49 49 50 53 54 55 54 55 56
58 58 60 58 56 57 52 50 50 52 43 49 46 50 47 53 48 46 50 45 46 36 42 42 37 36 43 49 48 50 50 48 48 48 49 49 50 50 50 50 52 52 51 50
59 58 66 61 56 55 54 52 55 50 46 57 53 50 51 53 55 47 50 45 47 41 49 40 34 41 47 49 50 51 51 51 49 49 48 48 49 49 49 49 49 50 50 50
65 62 61 60 57 45 52 47 51 51 59 62 59 53 53 51 54 49 50 47 44 54 41 33 40 45 49 50 51 52 54 53 52 50 50 49 48 49 49 48 50 49 48 49
59 61 41 53 54 55 57 57 57 62 62 63 61 55 53 57 52 54 48 50 48 39 34 34 41 46 48 51 53 52 52 53 53 51 50 49 48 48 49 49 49 49 47 48
63 63 42 57 64 66 65 65 64 64 66 64 55 59 60 56 53 53 51 45 37 37 37 42 45 48 49 50 52 53 52 53 53 54 53 50 49 48 48 49 49 49 48 48
67 66 62 65 62 62 64 62 61 66 65 66 63 58 53 51 51 47 44 40 35 42 46 48 51 50 50 50 52 53 53 53 53 54 55 55 51 49 49 50 49 49 49 48
65 62 70 66 64 61 63 64 63 67 63 57 58 51 50 55 47 45 49 44 47 50 51 53 53 51 51 52 53 54 54 53 53 53 54 55 57 56 55 51 53 54 54 53
MSLP
1023.69 1023.03 1022.40 1021.68 1021.03 1020.21 1018.64 1016.99 1014.11 1011.03 1010.92 1010.46 1010.20 1010.52 1010.50 1009.86 1009.23 1008.74 1008.95 1009.54 1009.49 1009.61 1009.95 1009.94 1010.41 1009.75 1009.42 1008.34 1008.52 1006.16 1002.93 999.03 994.85 992.58 990.78 990.50 991.11 991.57 992.89 994.02 995.28 995.61 995.22 992.54
1023.67 1023.06 1022.43 1021.72 1021.29 1020.61 1020.17 1017.84 1014.78 1012.28 1012.08 1012.30 1012.44 1012.35 1011.87 1010.68 1009.82 1009.71 1010.20 1010.59 1010.60 1010.71 1010.94 1011.01 1011.19 1010.71 1009.81 1009.54 1009.36 1007.09 1004.59 1000.22 996.57 993.28 992.27 991.05 990.21 990.54 991.69 993.14 994.30 994.74 994.67 992.35
1023.46 1022.99 1022.33 1021.84 1021.34 1020.67 1020.34 1018.15 1015.65 1014.60 1014.13 1014.58 1014.55 1013.83 1012.81 1011.90 1011.51 1011.28 1010.86 1011.06 1010.99 1010.79 1011.07 1011.36 1011.58 1010.67 1010.24 1009.74 1009.06 1007.90 1006.38 1001.15 998.68 994.78 991.85 991.08 990.04 989.86 990.88 992.17 993.04 993.78 992.85 992.64
1023.30 1022.86 1022.31 1021.81 1021.29 1020.53 1020.42 1018.51 1017.58 1017.87 1016.91 1016.37 1016.27 1015.15 1014.15 1013.50 1012.82 1012.10 1011.08 1011.43 1011.14 1011.59 1011.35 1011.10 1011.04 1010.55 1009.93 1009.15 1008.45 1007.54 1006.64 1001.12 998.09 994.83 992.34 991.15 990.19 989.54 989.87 990.57 991.84 992.31 992.22 992.29
1023.04 1022.52 1022.09 1021.82 1021.28 1020.58 1020.24 1019.23 1019.51 1019.51 1018.90 1018.05 1016.89 1015.64 1014.89 1014.22 1013.45 1013.13 1011.86 1011.17 1011.04 1011.24 1010.80 1010.35 1010.36 1009.55 1009.37 1008.93 1008.14 1007.85 1005.37 1001.82 998.10 994.67 992.73 991.62 990.58 989.07 988.79 989.83 990.62 991.50 991.24 991.30
1022.58 1022.09 1021.79 1021.54 1021.19 1020.98 1020.25 1019.63 1019.84 1020.23 1019.61 1018.78 1017.72 1016.33 1015.78 1015.08 1014.41 1013.09 1012.55 1011.63 1010.52 1010.20 1009.49 1009.41 1008.45 1007.96 1007.88 1007.77 1007.70 1007.57 1006.02 1002.67 999.56 995.83 993.61 992.37 991.11 989.61 988.93 989.28 990.01 990.82 991.09 990.76
1022.00 1021.55 1021.32 1021.07 1020.84 1020.81 1020.68 1020.12 1020.26 1020.54 1019.89 1019.31 1018.38 1017.14 1016.18 1015.24 1014.22 1013.50 1012.24 1011.41 1010.73 1009.46 1008.60 1008.31 1007.57 1006.79 1006.28 1006.24 1006.61 1007.13 1005.57 1003.04 1000.58 997.64 994.88 993.65 991.56 990.28 989.87 989.44 990.28 991.03 990.89 990.88
1021.38 1020.97 1020.80 1020.47 1020.24 1020.17 1020.21 1019.89 1020.17 1020.44 1020.04 1019.21 1018.19 1017.04 1016.55 1015.45 1014.14 1013.17 1012.12 1011.54 1011.01 1009.50 1008.51 1008.55 1007.49 1006.30 1005.37 1004.61 1004.64 1005.19 1004.07 1002.77 1001.37 999.20 996.69 994.83 992.86 993.04 992.36 991.29 993.48 993.89 992.64 991.36
1020.69 1020.35 1020.08 1019.73 1019.58 1019.44 1019.47 1019.20 1019.52 1020.02 1019.92 1018.65 1017.88 1017.26 1016.60 1015.59 1014.42 1013.01 1011.99 1011.39 1010.35 1009.65 1009.83 1009.27 1008.18 1006.56 1005.48 1004.03 1003.31 1003.99 1002.82 1002.08 1002.12 1000.34 998.79 997.01 997.11 994.35 992.65 991.84 995.65 996.67 995.15 993.33
1020.09 1019.76 1019.36 1019.08 1018.93 1018.76 1018.92 1018.68 1018.81 1019.39 1019.32 1018.21 1017.61 1016.95 1016.62 1015.85 1014.99 1014.05 1012.61 1012.23 1011.18 1010.74 1011.34 1009.86 1008.71 1007.89 1006.78 1005.81 1004.21 1003.52 1003.58 1003.33 1002.67 1001.65 1000.78 999.95 999.35 996.90 994.25 994.88 999.94 999.01 997.86 996.89
1019.52 1019.20 1018.74 1018.50 1018.29 1018.18 1018.38 1018.01 1018.21 1018.65 1018.72 1017.78 1016.94 1016.57 1016.26 1015.59 1015.14 1014.49 1013.76 1013.01 1012.62 1012.10 1011.86 1011.40 1010.54 1009.54 1008.39 1007.01 1006.12 1005.89 1004.61 1004.30 1003.98 1003.29 1002.48 1002.74 1001.59 999.73 999.35 1000.53 1000.32 1000.16 999.74 999.20
1018.89 1018.59 1018.21 1017.93 1017.75 1017.70 1017.75 1017.76 1017.69 1018.11 1018.50 1017.56 1016.93 1016.33 1015.49 1015.17 1014.58 1014.48 1014.23 1014.34 1013.87 1013.51 1013.62 1012.87 1011.77 1010.45 1009.62 1008.39 1008.26 1007.51 1007.32 1007.50 1007.57 1006.57 1005.64 1004.14 1003.17 1002.47 1001.80 1001.49 1001.38 1001.36 1001.11 1000.76
1018.41 1018.00 1017.68 1017.41 1017.24 1017.17 1017.32 1017.53 1017.90 1018.25 1018.26 1017.37 1016.27 1015.38 1015.02 1014.70 1014.57 1013.90 1014.47 1014.44 1014.72 1014.86 1014.83 1014.25 1013.08 1011.93 1011.71 1010.79 1010.16 1009.57 1008.75 1007.99 1007.66 1007.26 1005.61 1005.87 1004.97 1004.30 1003.52 1003.55 1003.33 1002.27 1001.99 1001.89
1017.95 1017.52 1017.19 1016.93 1016.80 1016.86 1017.06 1017.41 1017.79 1017.83 1017.90 1017.54 1015.87 1015.00 1015.12 1015.07 1014.73 1014.73 1015.09 1015.21 1015.08 1015.29 1015.36 1015.20 1014.89 1014.30 1013.66 1012.79 1012.14 1011.42 1010.35 1009.69 1009.86 1008.04 1007.30 1006.74 1004.79 1004.96 1005.58 1005.01 1004.63 1003.70 1003.00 1002.07
1017.59 1017.20 1016.83 1016.57 1016.60 1016.71 1016.81 1016.97 1017.41 1017.36 1017.69 1017.30 1016.20 1015.53 1015.59 1015.39 1015.32 1015.39 1015.48 1015.68 1015.93 1015.98 1016.04 1015.91 1015.84 1015.79 1015.54 1014.42 1012.84 1012.15 1012.25 1012.49 1012.08 1009.92 1009.06 1009.52 1007.43 1006.21 1006.12 1006.14 1005.27 1004.81 1004.26 1003.24
1017.36 1016.96 1016.60 1016.53 1016.53 1016.61 1016.86 1017.13 1017.57 1017.24 1017.40 1017.20 1016.31 1015.27 1015.34 1015.64 1015.58 1015.89 1016.23 1016.52 1016.86 1017.19 1017.57 1017.75 1017.57 1017.16 1016.97 1016.24 1015.11 1013.70 1013.23 1012.58 1012.02 1009.89 1008.72 1007.75 1006.84 1006.76 1006.11 1005.79 1005.11 1004.94 1004.23 1003.45
1017.25 1017.01 1016.82 1016.71 1016.72 1016.64 1016.74 1017.17 1017.13 1017.21 1017.29 1017.14 1016.08 1015.24 1015.16 1015.34 1015.76 1016.22 1016.78 1017.38 1017.82 1018.02 1018.39 1018.58 1018.47 1018.20 1017.98 1017.38 1016.44 1014.52 1012.65 1010.28 1008.75 1008.29 1007.44 1006.44 1006.26 1005.45 1004.98 1004.77 1004.08 1003.87 1003.28 1003.06
1017.14 1017.09 1017.06 1017.03 1016.90 1017.16 1016.83 1017.21 1017.15 1017.09 1017.07 1016.94 1016.10 1014.82 1014.79 1015.05 1015.53 1016.32 1017.08 1017.38 1017.74 1018.12 1018.39 1018.46 1018.57 1018.49 1018.17 1017.34 1015.81 1014.00 1012.08 1009.68 1007.91 1006.76 1006.27 1005.81 1005.13 1004.48 1004.13 1004.23 1004.07 1003.60 1003.34 1003.19
1017.03 1017.08 1017.13 1016.97 1017.15 1016.53 1016.79 1017.08 1017.20 1017.03 1017.11 1016.29 1015.59 1015.09 1014.33 1014.49 1014.89 1016.04 1016.92 1017.24 1017.33 1017.78 1017.75 1017.68 1018.07 1017.85 1017.26 1016.50 1015.12 1013.54 1012.22 1010.62 1008.85 1007.33 1006.33 1005.58 1005.10 1004.28 1003.48 1003.78 1003.85 1003.73 1003.48 1003.23
1017.15 1017.28 1016.81 1016.25 1016.28 1016.70 1016.88 1016.97 1016.74 1016.32 1015.89 1015.37 1015.06 1014.71 1014.03 1013.66 1014.24 1014.83 1015.67 1016.31 1016.24 1016.40 1016.25 1016.59 1016.93 1016.73 1016.18 1015.71 1014.54 1013.71 1012.50 1011.65 1009.97 1007.99 1006.89 1006.08 1005.53 1004.80 1004.31 1004.30 1004.18 1003.95 1003.70 1003.31
1017.11 1016.21 1015.39 1016.17 1016.58 1016.41 1016.23 1015.43 1014.92 1014.45 1014.49 1013.94 1014.01 1013.88 1013.37 1012.79 1013.06 1013.60 1013.98 1014.32 1014.37 1014.59 1015.23 1015.55 1016.26 1016.04 1015.56 1014.75 1014.11 1013.34 1012.66 1012.03 1011.26 1010.17 1008.86 1007.70 1006.82 1006.02 1005.59 1005.32 1005.15 1004.89 1004.44 1003.84
1016.24 1016.05 1014.56 1015.40 1015.61 1014.95 1014.29 1013.64 1013.02 1012.90 1012.54 1011.42 1011.56 1012.08 1012.43 1012.07 1012.41 1013.12 1012.76 1012.79 1012.88 1013.47 1014.42 1015.53 1016.11 1016.23 1015.38 1014.61 1013.94 1013.27 1012.59 1012.21 1011.89 1011.06 1010.36 1009.40 1008.59 1007.64 1006.95 1006.67 1006.44 1005.95 1005.15 1004.05
1014.84 1015.08 1013.93 1013.62 1013.44 1013.25 1012.68 1012.14 1011.66 1011.14 1010.45 1010.04 1010.30 1011.14 1011.49 1011.54 1011.63 1011.75 1011.41 1011.67 1012.37 1013.07 1014.98 1016.17 1016.31 1016.01 1015.35 1014.62 1013.94 1013.40 1012.78 1012.10 1012.00 1011.73 1011.03 1010.57 1010.05 1009.13 1008.59 1008.44 1008.19 1007.45 1006.63 1006.02
1014.64 1013.02 1013.15 1012.79 1012.27 1012.27 1011.52 1011.19 1010.83 1010.34 1010.00 1009.63 1009.40 1009.73 1010.24 1010.08 1010.62 1010.67 1011.37 1012.51 1013.51 1014.69 1015.77 1016.50 1016.50 1015.91 1015.41 1014.66 1014.05 1013.49 1012.98 1012.42 1011.90 1011.85 1011.68 1011.22 1010.76 1010.52 1010.21 1009.75 1009.39 1008.90 1008.73 1008.36
1013.06 1012.30 1012.36 1011.65 1011.26 1011.05 1010.97 1010.78 1010.51 1010.16 1009.63 1009.14 1009.10 1008.97 1009.59 1009.87 1010.67 1011.45 1012.13 1013.15 1014.59 1015.58 1016.03 1016.19 1015.94 1015.65 1015.20 1014.62 1014.03 1013.57 1013.14 1012.65 1012.17 1011.59 1011.56 1011.64 1011.32 1010.98 1010.85 1010.71 1010.50 1010.30 1010.30 1009.92
1012.02 1011.40 1011.27 1011.06 1011.24 1011.26 1011.10 1010.90 1010.68 1010.24 1009.49 1008.49 1008.34 1009.22 1010.13 1010.90 1011.84 1012.65 1013.48 1014.30 1014.88 1015.05 1015.10 1015.25 1015.06 1014.90 1014.74 1014.34 1014.00 1013.43 1012.99 1012.64 1012.27 1011.79 1011.51 1011.33 1011.31 1011.16 1011.13 1011.09 1011.02 1010.87 1010.67 1010.49
1011.58 1010.99 1010.76 1010.91 1011.18 1011.48 1011.33 1011.17 1010.96 1010.33 1009.95 1009.51 1009.49 1010.34 1010.91 1011.66 1012.79 1013.47 1013.91 1014.61 1015.01 1014.86 1014.73 1014.70 1014.62 1014.61 1014.41 1014.11 1013.66 1013.13 1012.84 1012.63 1012.30 1012.04 1011.60 1011.28 1011.17 1010.97 1011.00 1011.09 1010.89 1010.65 1010.41 1010.15
Wind_Speed
19 20 21 21 20 23 12 6 6 11 14 6 6 9 18 16 16 11 11 12 15 13 18 11 11 21 14 25 26 29 18 11 17 27 15 24 16 15 15 11 12 5 5 13
18 19 19 19 17 18 7 7 6 8 13 6 7 15 17 19 17 9 7 5 6 12 15 6 7 14 12 13 18 14 16 8 6 17 16 20 29 23 18 8 6 10 9 11
18 18 17 17 16 17 7 5 5 5 7 10 14 13 13 18 21 19 3 5 9 10 8 5 10 9 10 19 21 31 24 15 18 12 15 7 13 24 20 16 10 9 16 4
18 17 17 15 15 17 5 3 4 6 6 10 16 14 13 14 11 12 13 5 7 7 8 8 8 15 16 17 19 17 12 11 16 14 12 9 15 26 23 20 16 15 12 8
18 18 17 14 13 16 3 5 3 3 8 11 15 11 10 12 17 15 14 15 9 7 8 9 15 6 9 7 13 15 17 10 16 5 9 10 17 19 26 20 19 16 10 9
18 18 17 14 11 7 4 3 2 1 3 7 10 8 10 13 20 11 19 22 9 9 11 10 12 15 10 15 6 14 16 10 10 5 4 5 5 17 16 20 18 19 17 9
19 18 17 14 11 5 4 4 2 2 4 5 9 19 18 18 17 18 21 11 17 15 10 11 15 15 14 15 9 8 23 18 5 6 5 2 8 8 9 16 13 14 12 9
21 20 18 15 11 10 4 3 3 3 4 6 11 12 11 16 14 14 19 12 14 20 7 9 8 9 10 14 16 15 18 11 5 3 0 3 4 14 15 2 12 25 17 4
21 19 17 16 12 11 4 5 3 3 1 5 8 10 11 10 8 10 13 15 12 12 5 4 3 4 6 3 6 18 15 8 3 5 4 3 18 26 30 15 12 22 21 24
20 19 18 16 13 11 4 2 5 3 3 4 3 3 4 6 7 6 12 14 8 6 2 4 3 3 4 4 10 10 8 4 3 6 3 7 20 28 17 12 5 14 19 19
20 19 17 15 13 12 4 2 8 4 3 5 7 6 8 6 4 4 10 7 5 4 7 5 4 5 4 3 7 12 6 2 1 2 5 5 16 16 20 3 8 11 14 16
19 18 16 14 12 10 5 2 3 3 1 5 7 13 17 16 13 9 3 5 10 4 5 5 4 5 3 11 5 11 6 3 4 8 6 4 7 15 14 14 9 10 10 11
18 17 16 14 11 8 4 1 2 3 1 5 3 1 8 10 8 9 1 2 6 5 6 4 4 4 8 7 6 10 10 9 4 12 12 17 17 15 20 17 22 9 8 7
17 17 15 11 7 2 6 3 3 1 1 2 2 9 4 1 6 9 7 3 4 5 3 3 2 4 8 4 6 3 6 12 18 15 9 21 9 17 17 21 21 20 19 11
17 16 14 8 2 4 5 4 4 2 1 2 5 8 3 6 6 9 7 6 4 3 4 3 3 3 4 4 4 3 7 9 5 11 22 17 26 24 21 20 20 20 16 17
15 14 8 3 4 6 2 2 1 2 1 1 2 3 1 4 6 8 9 5 4 3 2 3 4 6 3 4 4 5 11 17 18 22 20 25 26 23 24 20 19 17 18 13
11 9 4 4 2 3 2 3 3 4 3 1 3 2 2 3 3 3 3 5 3 2 2 1 1 2 2 1 3 15 24 26 22 20 19 17 20 16 11 11 14 13 12 9
6 3 3 6 9 7 3 3 3 0 1 1 3 1 4 6 2 2 2 2 1 2 1 1 1 1 1 3 10 18 23 25 15 9 7 15 15 16 15 12 11 14 13 9
2 2 4 2 2 2 3 5 2 3 2 2 2 2 3 5 3 3 2 0 1 1 0 2 2 1 3 9 17 21 23 26 23 18 12 10 7 13 15 12 10 11 10 9
5 1 4 2 3 11 7 3 3 3 5 3 3 2 1 3 2 3 4 3 2 1 2 5 2 1 3 10 12 13 15 25 27 26 25 15 6 9 8 3 6 7 9 10
3 4 1 4 7 3 1 3 3 1 3 3 4 5 2 4 2 2 4 2 4 0 3 1 3 3 11 10 13 14 14 15 22 23 20 23 19 16 15 15 15 13 13 11
4 4 2 4 4 4 4 3 2 3 5 3 4 5 3 2 4 2 5 4 3 4 3 4 4 6 10 9 10 15 15 12 15 19 22 23 21 20 20 20 19 17 18 19
4 4 5 2 2 4 2 2 3 3 3 7 2 3 2 2 4 5 1 4 3 4 4 3 3 8 9 11 7 11 15 15 9 12 15 18 22 22 20 17 17 19 20 21
5 2 6 2 2 4 3 7 8 7 8 10 2 2 5 4 3 3 3 4 6 4 5 3 5 9 8 9 9 6 12 14 15 7 11 13 14 15 16 17 17 14 17 19
4 2 2 3 4 7 9 8 7 8 9 7 3 1 4 3 4 4 5 4 5 2 2 2 4 4 4 7 8 9 6 9 10 12 4 6 8 10 11 11 12 14 15 14
3 3 4 5 7 7 8 7 8 9 9 8 2 3 4 5 4 5 7 3 2 3 2 1 2 3 4 6 6 7 5 6 7 9 9 4 5 4 3 3 8 8 8 10
4 1 4 4 4 5 6 6 7 8 6 6 4 5 6 4 3 1 2 2 4 5 1 3 2 2 5 6 8 7 3 4 7 7 8 8 3 6 8 9 10 6 4 2
Wind_Direction
332 334 335 336 341 340 342 301 305 354 352 329 338 356 340 345 333 342 10 348 341 346 333 296 303 287 278 325 329 317 289 293 235 240 254 210 225 212 196 203 229 222 196 258
330 332 333 332 342 347 322 299 281 6 341 28 347 338 335 324 350 356 31 316 309 324 314 337 334 329 313 322 313 323 329 322 273 249 254 266 214 201 212 180 145 217 224 260
328 328 329 329 335 334 333 289 308 359 328 357 353 334 321 338 338 338 46 296 294 323 327 1 287 284 293 314 295 302 305 252 243 258 231 223 220 204 199 203 200 212 240 233
325 325 324 330 328 325 314 316 348 23 319 332 316 308 322 344 325 313 309 271 320 338 299 291 296 324 330 315 304 308 295 264 256 264 270 278 270 200 194 206 209 196 234 183
321 320 321 327 326 325 235 329 2 16 295 305 308 314 323 321 320 345 312 318 325 307 266 284 310 292 336 305 316 321 305 285 323 275 288 277 285 243 193 199 212 223 247 224
320 316 319 321 319 340 290 71 20 88 270 302 309 307 328 310 306 305 317 302 293 260 281 290 269 286 236 244 232 304 285 319 331 307 317 293 301 252 196 203 196 209 223 210
317 313 316 314 309 292 279 289 107 156 269 268 299 302 310 315 311 302 300 307 297 293 320 297 276 275 258 247 218 239 279 295 296 285 42 135 256 344 326 208 195 203 225 168
315 315 315 311 301 285 260 255 159 159 258 253 285 301 329 307 311 307 301 338 296 300 268 277 296 266 241 231 195 219 255 272 296 299 202 307 271 5 337 76 47 10 2 251
316 312 309 304 301 288 264 250 141 162 239 232 270 315 292 303 314 313 320 0 346 24 9 290 279 333 313 339 183 197 247 257 243 348 287 183 356 342 329 305 50 12 12 28
313 309 307 305 304 293 264 278 148 139 224 261 255 259 316 291 311 295 304 346 342 53 333 289 354 9 289 307 338 171 196 299 309 297 311 0 339 341 359 58 42 21 15 29
310 309 306 304 297 290 280 240 173 163 209 282 262 272 283 290 289 304 336 324 359 1 7 354 333 3 317 295 34 356 45 257 204 323 338 0 337 356 48 8 37 42 22 20
310 310 309 307 304 295 286 238 174 168 162 273 330 286 272 269 279 286 307 296 331 3 1 349 345 301 334 338 19 352 21 118 204 342 348 311 48 314 10 19 26 14 28 11
313 312 312 312 307 297 253 97 101 92 327 279 259 326 26 21 338 345 328 341 12 7 350 304 321 329 7 5 29 360 329 9 316 352 341 333 324 1 358 355 348 351 357 5
314 318 322 324 326 307 154 144 167 129 92 340 29 76 85 60 31 54 47 14 360 352 3 333 336 337 28 327 319 297 11 347 339 299 309 341 308 326 331 334 335 339 346 318
321 325 326 319 324 166 182 145 186 184 107 332 313 315 59 35 32 40 49 59 40 11 2 1 7 332 346 334 282 349 18 333 313 283 301 287 280 296 307 311 313 317 322 332
324 330 340 62 136 155 202 139 181 210 190 223 357 125 27 86 54 53 51 56 43 58 32 15 354 347 355 331 303 319 304 294 276 275 276 275 271 280 288 287 282 281 300 312
327 335 11 42 340 266 337 34 102 154 216 274 253 156 136 91 72 42 62 52 54 52 81 68 315 311 345 313 269 305 309 299 283 274 271 271 269 260 253 266 283 267 277 289
328 336 11 48 97 108 150 103 121 60 248 248 297 24 171 182 118 67 24 72 125 117 28 116 203 334 70 270 273 326 346 353 347 323 254 229 259 280 282 287 281 268 260 269
244 216 290 246 224 207 73 128 216 222 276 306 286 335 345 184 106 103 120 24 348 80 349 196 149 334 30 333 346 351 4 1 353 358 356 331 317 291 270 259 278 275 268 260
142 211 226 213 72 118 145 155 208 211 198 229 247 98 292 307 132 194 163 179 214 263 132 132 86 18 20 27 348 9 357 12 6 9 6 7 6 9 25 306 299 303 291 290
224 225 231 87 155 216 236 250 205 72 305 203 212 209 273 220 206 238 200 187 186 349 114 61 3 357 0 7 7 4 12 24 23 10 12 24 32 47 44 39 39 24 5 336
287 280 184 142 205 223 261 298 216 185 247 199 192 188 203 292 113 214 187 236 200 77 81 52 358 355 347 351 3 10 5 27 28 33 24 23 28 27 36 38 29 28 22 14
267 214 224 135 235 14 280 268 257 312 329 317 54 36 184 232 202 234 336 24 53 74 56 331 40 344 347 342 357 10 10 3 30 34 45 40 30 26 26 27 36 30 31 24
244 236 333 192 318 235 3 12 354 351 345 318 6 167 190 188 193 16 63 56 31 53 1 342 303 340 344 345 346 15 7 1 359 48 56 55 58 45 35 33 33 36 42 32
251 159 263 292 349 23 20 14 346 349 318 308 324 168 41 21 46 27 32 49 40 41 288 243 297 358 340 330 344 355 360 355 355 351 42 91 75 71 67 61 56 53 42 36
320 286 16 6 27 6 2 4 2 335 316 324 98 76 37 46 43 28 23 56 297 283 115 230 26 343 324 319 336 330 353 342 346 346 349 36 157 144 143 118 86 69 88 83
232 304 27 49 60 19 7 8 357 329 343 350 27 26 34 51 41 46 87 24 24 6 74 132 184 13 324 310 307 309 0 4 344 348 340 12 56 63 79 52 28 51 43 42